[Date Prev][Date Next][Thread Prev][Thread Next] - [Date Index][Thread Index][Author Index]
2 Line ISS Keps 11-18
- Subject: [sarex] 2 Line ISS Keps 11-18
- From: "Dave Larsen PhD" <doc@xxxxxxxxxxx>
- Date: Sun, 18 Nov 2001 03:16:56 -0800
ISS
1 25544U 98067A 01322.19080693 .00057244 00000-0 65760-3 0 7317
2 25544 51.6412 34.1720 0010240 347.4329 56.2209 15.61414913171117
----
Via the sarex mailing list at AMSAT.ORG courtesy of AMSAT-NA.
To unsubscribe, send "unsubscribe sarex" to Majordomo@amsat.org
AMSAT Home